Flag for Canada Weather past 2 weeks in Yarmouth County, Nova Scotia, Canada

Now
18 °F

Snow flurries. Passing clouds.


Feels Like: -1 °F
Forecast: 14 / 25 °F
Wind: 28 mph from North

Location: Yarmouth

Current Time: Mar 3, 2015 at 4:13:23 AM

Latest Report: Mar 3, 2015 at 3:00 AM


Visibility: 1 mi

Pressure: 30.03 "Hg

Humidity: 93%

Dew point: 16 °F

Location of Yarmouth CountyLocation

Historic Weather in Yarmouth County — Graph

°F

Yarmouth County temperature yesterday

Maximum temperature yesterday: 32 °F (at 5:00 AM)
Minimum temperature yesterday: 25 °F (at 11:00 PM)
Average temperature yesterday: 29 °F

Past Weeks' High & Low Weather Summary

 TemperatureHumidityPressure
High41 °F (Feb 22, 8:00 AM)100% (Feb 19, 5:00 AM)30.68 "Hg (Feb 19, 5:00 AM)
Low1 °F (Feb 24, 12:52 AM)50% (Feb 28, 2:00 AM)29.27 "Hg (Feb 16, 3:00 AM)
Average22 °F77%30.01 "Hg
* Reported Feb 16 3:00 AM — Mar 3 3:00 AM, Yarmouth County, Weather by CustomWeather, © 2015

Note: Actual official high and low records may vary slightly from our data, if they occured in-between our weather recording intervals... More about our weather records

Advertising

Yarmouth County weather history for previous 24 hours

 ConditionsComfort  
Time TempWeatherWind HumidityBarometerVisibility
3:00 AM
Tue, Mar 3
18 °FSnow flurries. Passing clouds.28 mph93%30.03 "Hg1 mi
2:00 AM21 °FLow level haze.24 mph58%29.99 "Hg15 mi
1:00 AM25 °FPassing clouds.28 mph63%29.94 "Hg15 mi
12:00 AM25 °FPassing clouds.32 mph63%29.91 "Hg15 mi
11:00 PM
Mon, Mar 2
25 °FPassing clouds.31 mph63%29.88 "Hg15 mi
10:00 PM27 °FPassing clouds.25 mph64%29.86 "Hg15 mi
9:48 PM27 °FPassing clouds.28 mph59%29.85 "Hg15 mi
9:00 PM28 °FOvercast.28 mph55%29.84 "Hg15 mi
8:00 PM28 °FPassing clouds.30 mph55%29.82 "Hg12 mi
7:00 PM27 °FSnow flurries. Partly cloudy.24 mph69%29.78 "Hg8 mi
6:00 PM28 °FSnow flurries. Partly sunny.29 mph64%29.74 "Hg8 mi
5:00 PM28 °FSnow flurries. Low clouds.24 mph69%29.71 "Hg3 mi
4:00 PM27 °FSnow flurries. Low clouds.25 mph86%29.70 "Hg3 mi
3:00 PM27 °FSnow showers. Ice fog.23 mph93%29.69 "Hg1 mi
2:00 PM27 °FSnow flurries. Low clouds.17 mph93%29.68 "Hg3 mi
1:00 PM28 °FSnow flurries. Low clouds.20 mph86%29.70 "Hg10 mi
12:00 PM28 °FSnow flurries. Mostly cloudy.15 mph86%29.72 "Hg8 mi
11:00 AM30 °FSnow flurries. Low clouds.16 mph86%29.73 "Hg8 mi
10:00 AM30 °FSnow flurries. Low clouds.14 mph100%29.76 "Hg3 mi
9:00 AM32 °FSnow flurries. Low clouds.14 mph100%29.78 "Hg4 mi
8:48 AM32 °FSnow flurries. Low clouds.13 mph100%29.78 "Hg2 mi
8:00 AM32 °FLight snow. Low clouds.7 mph100%29.80 "Hg1 mi
7:00 AM32 °FLight freezing rain. Ice fog.9 mph100%29.83 "Hg1 mi
6:47 AM30 °FLight freezing rain. Ice fog.7 mph100%29.84 "Hg1 mi
6:00 AM30 °FLight snow. Low clouds.10 mph100%29.87 "Hg1 mi
5:00 AM32 °FLight snow. Low clouds.9 mph100%29.90 "Hg2 mi
4:00 AM30 °FLight snow. Ice fog.9 mph100%29.97 "Hg1 mi
Weather by CustomWeather, © 2015

See weather overviewHow to use our weather pages